Voltar ao catálogo

STARLINK-30938

AtivoComunicaçõesVLEO
NORAD 58389·PAYLOAD·🇺🇸 United States

Lançado Nov 20, 2023 de Vandenberg Space Force Base

Loading…

Próximas Passagens (próximas 24 horas)

TLE

AtualizadoSource: CelesTrak SupGP

Época: Sep 14, 2026, 20:52 UTC

1 58389C 23178R   26257.86993056  .00027599  00000+0  81522-3 0  2571
2 58389  53.1573 199.7151 0001320  97.0470 236.7002 15.34385074    16

Acompanhe STARLINK-30938 em tempo real com AllMySat

Download on the App Store